FW6905 Weather Reports


Display with metric or nautical units.
time (UTC)temp
F
wind
direction
speed
MPH
gust
MPH
rain 1hr
in
rain 24hr
in
rain mn
in
humidity
%
barometer
mb
20260502151505 75 228 4.0 9.0 0.00 0.00 0.00 21 1021.8
20260502151005 75 212 6.0 9.0 0.00 0.00 0.00 21 1022.8
20260502150506 75 211 6.0 12.0 0.00 0.00 0.00 21 1022.8
20260502130505 76 240 7.0 13.0 0.00 0.00 0.00 19 1023.8
20260502123505 77 247 6.0 11.0 0.00 0.00 0.00 19 1023.8
20260502123006 76 241 3.0 10.0 0.00 0.00 0.00 20 1023.8
20260502122505 76 238 5.0 10.0 0.00 0.00 0.00 20 1023.8
20260502122006 76 232 5.0 13.0 0.00 0.00 0.00 19 1023.8
20260502120505 76 233 9.0 14.0 0.00 0.00 0.00 19 1023.8
20260502115505 77 224 7.0 11.0 0.00 0.00 0.00 19 1023.8
20260502115005 77 240 6.0 9.0 0.00 0.00 0.00 20 1023.8
20260502114005 76 258 6.0 13.0 0.00 0.00 0.00 20 1023.8
20260502113005 76 248 5.0 12.0 0.00 0.00 0.00 20 1023.8
20260502112505 76 259 4.0 11.0 0.00 0.00 0.00 20 1024.8
20260502112005 76 253 8.0 11.0 0.00 0.00 0.00 21 1024.8
20260502111505 76 233 4.0 11.0 0.00 0.00 0.00 20 1024.8
20260502111006 76 240 4.0 11.0 0.00 0.00 0.00 22 1024.8
20260502110505 76 248 5.0 12.0 0.00 0.00 0.00 22 1024.8
20260502110006 76 257 8.0 12.0 0.00 0.00 0.00 21 1024.8
20260502105505 76 251 5.0 11.0 0.00 0.00 0.00 22 1024.8
20260502105006 76 233 4.0 9.0 0.00 0.00 0.00 24 1024.8
20260502104005 76 236 5.0 10.0 0.00 0.00 0.00 23 1024.8
20260502103505 75 231 4.0 11.0 0.00 0.00 0.00 24 1024.8
20260502102505 75 247 4.0 9.0 0.00 0.00 0.00 25 1024.8
20260502102005 75 265 3.0 10.0 0.00 0.00 0.00 25 1024.8
20260502101504 75 243 5.0 10.0 0.00 0.00 0.00 26 1024.8
20260502101005 75 250 5.0 7.0 0.00 0.00 0.00 24 1024.8
20260502100505 74 255 2.0 8.0 0.00 0.00 0.00 26 1024.8
20260502091505 70 153 2.0 4.0 0.00 0.00 0.00 34 1025.8
20260502090506 69 27 2.0 3.0 0.00 0.00 0.00 37 1025.8
20260502071505 57 19 4.0 5.0 0.00 0.00 0.00 55 1027.8
20260502071005 56 74 2.0 4.0 0.00 0.00 0.00 56 1027.8
20260502070504 56 72 1.0 4.0 0.00 0.00 0.00 57 1027.8
20260502070005 55 147 2.0 4.0 0.00 0.00 0.00 58 1027.8
20260502065504 54 185 2.0 4.0 0.00 0.00 0.00 60 1027.8
20260502064505 53 251 2.0 3.0 0.00 0.00 0.00 63 1027.8
20260502064005 52 238 0.0 4.0 0.00 0.00 0.00 63 1027.8
20260502063504 52 288 2.0 5.0 0.00 0.00 0.00 64 1027.8
20260502063005 51 310 4.0 5.0 0.00 0.00 0.00 65 1027.8
20260502062505 51 332 1.0 3.0 0.00 0.00 0.00 65 1027.8
20260502061505 49 142 2.0 3.0 0.00 0.00 0.00 71 1027.8
20260502061005 49 176 0.0 3.0 0.00 0.00 0.00 72 1027.8
20260502060504 48 265 2.0 3.0 0.00 0.00 0.00 73 1027.8
20260502060005 48 358 2.0 3.0 0.00 0.00 0.00 74 1027.8
20260502055504 47 64 0.0 3.0 0.00 0.00 0.00 74 1027.8
20260502055005 46 115 2.0 3.0 0.00 0.00 0.00 76 1027.8
20260502054505 46 134 1.0 3.0 0.00 0.00 0.00 78 1027.8
20260502054005 45 114 1.0 3.0 0.00 0.00 0.00 79 1027.8
20260502053505 44 126 0.0 2.0 0.00 0.00 0.00 80 1027.8
20260502053005 44 134 1.0 2.0 0.00 0.00 0.00 80 1027.8
20260502052505 43 134 1.0 2.0 0.00 0.00 0.00 79 1027.8
20260502051505 42 143 2.0 2.0 0.00 0.00 0.00 79 1027.8
20260502050505 41 198 0.0 2.0 0.00 0.00 0.00 76 1026.8
20260502050005 41 0 0.0 0.0 0.00 0.00 0.00 76 1026.8
20260502045505 41 0 0.0 0.0 0.00 0.00 0.00 74 1027.8
20260502045005 41 0 0.0 0.0 0.00 0.00 0.00 75 1027.8
20260502044505 41 181 0.0 2.0 0.00 0.00 0.00 74 1027.8
20260502044005 41 181 0.0 2.0 0.00 0.00 0.00 74 1027.8
20260502043504 41 0 0.0 0.0 0.00 0.00 0.00 74 1027.8
20260502043005 41 207 0.0 2.0 0.00 0.00 0.00 73 1027.8
20260502042504 41 197 1.0 2.0 0.00 0.00 0.00 73 1027.8
20260502042004 41 85 1.0 2.0 0.00 0.00 0.00 73 1027.8
20260502041505 41 1 0.0 2.0 0.00 0.00 0.00 72 1027.8
20260502041004 41 0 0.0 0.0 0.00 0.00 0.00 72 1027.8
20260502040505 41 0 0.0 0.0 0.00 0.00 0.00 72 1027.8
20260502035505 41 0 0.0 0.0 0.00 0.00 0.00 72 1027.8
20260502035005 41 0 0.0 0.0 0.00 0.00 0.00 71 1027.8
20260502034505 41 0 0.0 0.0 0.00 0.00 0.00 72 1027.8
20260502034005 41 0 0.0 0.0 0.00 0.00 0.00 71 1027.8
20260502033504 41 314 0.0 2.0 0.00 0.00 0.00 72 1027.8
20260502033005 41 269 0.0 2.0 0.00 0.00 0.00 72 1027.8
20260502032505 41 264 1.0 2.0 0.00 0.00 0.00 71 1027.8
20260502032005 41 357 1.0 2.0 0.00 0.00 0.00 70 1027.8
20260502031505 41 7 0.0 2.0 0.00 0.00 0.00 70 1027.8
20260502031005 41 0 0.0 0.0 0.00 0.00 0.00 70 1027.8
20260502030505 41 292 0.0 2.0 0.00 0.00 0.00 70 1027.8
20260502025504 41 306 2.0 2.0 0.00 0.00 0.00 69 1026.8
20260502025005 41 302 1.0 2.0 0.00 0.00 0.00 68 1026.8
20260502024505 41 112 0.0 2.0 0.00 0.00 0.00 68 1026.8
20260502024005 41 112 1.0 2.0 0.00 0.00 0.00 70 1027.8
20260502023505 42 111 0.0 2.0 0.00 0.00 0.00 69 1027.8
20260502023004 42 111 0.0 2.0 0.00 0.00 0.00 69 1027.8
20260502022505 42 112 0.0 2.0 0.00 0.00 0.00 69 1027.8
20260502022005 42 0 0.0 0.0 0.00 0.00 0.00 69 1027.8
20260502021505 42 98 0.0 2.0 0.00 0.00 0.00 68 1027.8
20260502021004 42 89 0.0 2.0 0.00 0.00 0.00 69 1027.8
20260502020505 42 68 1.0 2.0 0.00 0.00 0.00 69 1027.8
20260502015004 42 0 0.0 0.0 0.00 0.00 0.00 68 1027.8
20260502014505 42 0 0.0 0.0 0.00 0.00 0.00 68 1027.8
20260502014004 42 0 0.0 0.0 0.00 0.00 0.00 69 1027.8
20260502013504 42 0 0.0 0.0 0.00 0.00 0.00 68 1027.8
20260502012505 42 0 0.0 0.0 0.00 0.00 0.00 66 1027.8
20260502012004 42 135 0.0 2.0 0.00 0.00 0.00 67 1027.8
20260502011505 42 135 0.0 2.0 0.00 0.00 0.00 67 1027.8
20260502011004 42 0 0.0 0.0 0.00 0.00 0.00 67 1027.8
20260502010505 42 0 0.0 0.0 0.00 0.00 0.00 65 1027.8
20260502010004 42 135 0.0 1.0 0.00 0.00 0.00 65 1027.8
20260502005505 42 135 0.0 2.0 0.00 0.00 0.00 65 1028.8
20260502005005 43 149 0.0 2.0 0.00 0.00 0.00 65 1028.8
20260502004505 43 154 1.0 2.0 0.00 0.00 0.00 65 1028.8
20260502004005 43 314 0.0 2.0 0.00 0.00 0.00 65 1028.8
20260502003505 43 314 0.0 2.0 0.00 0.00 0.00 63 1028.8
20260502003005 43 90 0.0 2.0 0.00 0.00 0.00 64 1028.8
20260502002504 43 90 1.0 2.0 0.00 0.00 0.00 64 1028.8
20260502002005 43 0 0.0 0.0 0.00 0.00 0.00 63 1028.8
20260502000505 43 107 1.0 2.0 0.00 0.00 0.00 63 1028.8
20260502000005 44 112 0.0 2.0 0.00 0.00 0.00 62 1028.8
20260501235505 44 46 0.0 2.0 0.00 0.00 0.00 62 1028.8
20260501235005 44 46 0.0 2.0 0.00 0.00 0.00 62 1028.8
20260501234505 44 71 0.0 2.0 0.00 0.00 0.00 61 1028.8
20260501234005 44 52 0.0 2.0 0.00 0.00 0.00 61 1028.8
20260501233504 44 76 0.0 2.0 0.00 0.00 0.00 61 1028.8
20260501233005 44 125 0.0 2.0 0.00 0.00 0.00 60 1028.8
20260501232505 44 110 2.0 4.0 0.00 0.00 0.00 61 1027.8
20260501232004 45 86 1.0 4.0 0.00 0.00 0.00 59 1027.8
20260501231505 45 70 1.0 2.0 0.00 0.00 0.00 59 1027.8
20260501231005 45 112 0.0 2.0 0.00 0.00 0.00 59 1028.8
20260501230504 45 0 0.0 0.0 0.00 0.00 0.00 59 1028.8
20260501230005 45 112 0.0 2.0 0.00 0.00 0.00 59 1028.8
20260501225504 45 111 0.0 2.0 0.00 0.00 0.00 59 1027.8
20260501225004 46 101 2.0 2.0 0.00 0.00 0.00 59 1027.8
20260501224505 46 81 1.0 3.0 0.00 0.00 0.00 59 1027.8
20260501224004 46 77 2.0 3.0 0.00 0.00 0.00 58 1027.8
20260501223505 46 79 2.0 2.0 0.00 0.00 0.00 58 1027.8
20260501223004 46 0 0.0 0.0 0.00 0.00 0.00 58 1027.8
20260501222505 46 0 0.0 0.0 0.00 0.00 0.00 57 1027.8
20260501222005 46 90 0.0 2.0 0.00 0.00 0.00 56 1027.8
20260501221005 46 92 2.0 4.0 0.00 0.00 0.00 57 1027.8
20260501220504 46 90 3.0 4.0 0.00 0.00 0.00 58 1027.8
20260501220011 46 80 2.0 3.0 0.00 0.00 0.00 55 1027.8
20260501215506 46 108 0.0 2.0 0.00 0.00 0.00 55 1027.8
20260501215006 47 111 0.0 2.0 0.00 0.00 0.00 55 1027.8
20260501214506 47 111 2.0 2.0 0.00 0.00 0.00 56 1027.8
20260501214007 47 90 0.0 1.0 0.00 0.00 0.00 54 1027.8
20260501213506 47 85 0.0 2.0 0.00 0.00 0.00 54 1027.8
20260501213007 47 69 1.0 2.0 0.00 0.00 0.00 54 1027.8
20260501212506 48 50 0.0 2.0 0.00 0.00 0.00 53 1027.8
20260501212006 48 55 2.0 2.0 0.00 0.00 0.00 53 1027.8
20260501211007 48 68 0.0 2.0 0.00 0.00 0.00 52 1026.8
20260501210506 48 68 0.0 2.0 0.00 0.00 0.00 52 1026.8
20260501210006 48 68 1.0 2.0 0.00 0.00 0.00 52 1026.8
20260501205506 49 0 0.0 0.0 0.00 0.00 0.00 52 1027.8
20260501204007 49 88 0.0 3.0 0.00 0.00 0.00 52 1027.8
20260501203007 50 73 2.0 3.0 0.00 0.00 0.00 49 1027.8
20260501202507 50 87 1.0 2.0 0.00 0.00 0.00 49 1027.8
20260501202006 50 90 0.0 2.0 0.00 0.00 0.00 50 1027.8
20260501200506 51 203 0.0 1.0 0.00 0.00 0.00 47 1027.8
20260501195506 51 208 0.0 3.0 0.00 0.00 0.00 48 1026.8
20260501195006 52 240 2.0 3.0 0.00 0.00 0.00 47 1026.8
20260501194507 52 162 2.0 3.0 0.00 0.00 0.00 45 1026.8
20260501193506 53 100 0.0 2.0 0.00 0.00 0.00 44 1026.8
20260501193006 53 79 2.0 2.0 0.00 0.00 0.00 44 1026.8
20260501192506 53 64 0.0 2.0 0.00 0.00 0.00 44 1026.8
20260501191506 54 86 0.0 2.0 0.00 0.00 0.00 42 1026.8
20260501191007 54 116 2.0 2.0 0.00 0.00 0.00 43 1025.8
20260501190506 54 329 0.0 2.0 0.00 0.00 0.00 42 1025.8
20260501190006 55 117 0.0 2.0 0.00 0.00 0.00 42 1025.8
20260501185506 55 139 0.0 2.0 0.00 0.00 0.00 40 1025.8
20260501185006 56 77 0.0 2.0 0.00 0.00 0.00 39 1025.8
20260501184506 56 70 2.0 2.0 0.00 0.00 0.00 38 1025.8
20260501183006 57 331 0.0 3.0 0.00 0.00 0.00 35 1025.8
20260501181506 59 0 0.0 0.0 0.00 0.00 0.00 32 1025.8
20260501181006 60 0 0.0 0.0 0.00 0.00 0.00 31 1025.8
20260501180506 60 0 0.0 0.0 0.00 0.00 0.00 30 1025.8
20260501180006 61 270 0.0 2.0 0.00 0.00 0.00 30 1025.8
20260501174506 62 295 0.0 2.0 0.00 0.00 0.00 26 1025.8
20260501174006 63 274 0.0 2.0 0.00 0.00 0.00 25 1025.8
20260501173506 64 282 0.0 2.0 0.00 0.00 0.00 25 1025.8
20260501173006 64 314 2.0 2.0 0.00 0.00 0.00 23 1025.8
20260501172507 65 311 2.0 2.0 0.00 0.00 0.00 23 1025.8
20260501172007 66 277 0.0 3.0 0.00 0.00 0.00 21 1025.8
20260501171507 66 293 1.0 3.0 0.00 0.00 0.00 20 1025.8
20260501171007 67 296 2.0 3.0 0.00 0.00 0.00 19 1025.8
20260501170506 67 284 2.0 3.0 0.00 0.00 0.00 19 1025.8
20260501170006 68 281 1.0 4.0 0.00 0.00 0.00 19 1025.8
20260501165506 68 279 2.0 5.0 0.00 0.00 0.00 18 1024.8
20260501164507 69 263 3.0 4.0 0.00 0.00 0.00 17 1024.8
20260501164007 69 263 3.0 6.0 0.00 0.00 0.00 17 1024.8
20260501163507 69 261 3.0 6.0 0.00 0.00 0.00 17 1024.8
20260501163006 69 268 4.0 7.0 0.00 0.00 0.00 17 1024.8
20260501162506 69 267 2.0 7.0 0.00 0.00 0.00 17 1024.8
20260501162006 69 255 3.0 8.0 0.00 0.00 0.00 16 1024.8
20260501161507 70 254 3.0 8.0 0.00 0.00 0.00 16 1024.8
20260501161007 70 260 6.0 9.0 0.00 0.00 0.00 15 1025.8
20260501160506 70 250 3.0 9.0 0.00 0.00 0.00 16 1025.8
20260501160006 70 221 4.0 6.0 0.00 0.00 0.00 16 1025.8
20260501155506 70 213 4.0 7.0 0.00 0.00 0.00 16 1024.8
20260501155006 70 213 4.0 9.0 0.00 0.00 0.00 16 1024.8
20260501154506 70 216 5.0 9.0 0.00 0.00 0.00 16 1024.8
20260501153507 70 255 5.0 9.0 0.00 0.00 0.00 15 1024.8
20260501153006 70 257 7.0 12.0 0.00 0.00 0.00 15 1024.8